Flag for Switzerland Weather past 2 weeks in Horw, Lucerne, Switzerland

Now
28 °F

Chilly.


Feels Like: 28 °F
Forecast: 26 / 54 °F
Wind: 2 mph from Southeast

Location: Giswil

Current Time: Mar 7, 2015 at 2:42:33 AM

Latest Report: Mar 7, 2015 at 2:00 AM


Visibility: N/A

Pressure: 30.63 "Hg

Humidity: 92%

Dew point: 26 °F

Location of HorwLocation

Historic Weather in Horw — Graph

°F

Horw temperature yesterday

Maximum temperature yesterday: 46 °F (at 4:00 PM)
Minimum temperature yesterday: 23 °F (at 6:00 AM)
Average temperature yesterday: 32 °F

Past Weeks' High & Low Weather Summary

 TemperatureHumidityPressure
High53 °F (Mar 2, 1:00 PM)100% (Feb 20, 1:00 AM)30.73 "Hg (Feb 20, 1:00 AM)
Low20 °F (Feb 20, 6:00 AM)31% (Feb 26, 4:00 PM)29.59 "Hg (Feb 21, 3:00 PM)
Average35 °F85%30.11 "Hg
* Reported Feb 20 1:00 AM — Mar 7 1:00 AM, Horw, Weather by CustomWeather, © 2015

Note: Actual official high and low records may vary slightly from our data, if they occured in-between our weather recording intervals... More about our weather records

Advertising

Horw weather history for previous 24 hours

 ConditionsComfort  
Time TempWeatherWind HumidityBarometerVisibility
1:00 AM
Sat, Mar 7
26 °FChilly.1 mph95%30.64 "HgN/A
12:00 AM26 °FChilly.1 mph94%30.64 "HgN/A
11:00 PM
Fri, Mar 6
28 °FChilly.2 mph92%30.66 "HgN/A
10:00 PM30 °FChilly.1 mph91%30.67 "HgN/A
9:00 PM31 °FChilly.1 mph87%30.64 "HgN/A
8:00 PM32 °FChilly.3 mph83%30.63 "HgN/A
7:00 PM34 °FChilly.2 mph80%30.64 "HgN/A
6:00 PM39 °FChilly.5 mph63%30.60 "HgN/A
5:00 PM45 °FCool.1 mph44%30.58 "HgN/A
4:00 PM46 °FCool.5 mph46%30.58 "HgN/A
3:00 PM44 °FQuite cool.2 mph47%30.59 "HgN/A
2:00 PM42 °FQuite cool.2 mph48%30.60 "HgN/A
1:00 PM41 °FQuite cool.3 mph49%30.65 "HgN/A
12:00 PM38 °FChilly.2 mph55%30.69 "HgN/A
11:00 AM36 °FChilly.1 mph59%30.70 "HgN/A
10:00 AM32 °FChilly.1 mph71%30.71 "HgN/A
9:00 AM27 °FChilly.No wind88%30.72 "HgN/A
8:00 AM24 °FCold.1 mph90%30.73 "HgN/A
7:00 AM24 °FCold.2 mph90%30.72 "HgN/A
6:00 AM23 °FCold.1 mph91%30.71 "HgN/A
5:00 AM24 °FCold.2 mph90%30.71 "HgN/A
3:00 AM25 °FChilly.1 mph89%30.69 "HgN/A
2:00 AM26 °FChilly.1 mph90%30.70 "HgN/A
Weather by CustomWeather, © 2015

See weather overviewHow to use our weather pages